FW8937 Weather Reports


time (UTC)temp
F
wind
direction
speed
knots
gust
knots
rain 1hr
in
rain 24hr
in
rain mn
in
humidity
%
barometer
mb
20260505230904 26 0 2.6 6.1 0.00 0.34 0.09 88 1011.2
20260505230132 26 0 2.6 7.0 0.00 0.34 0.09 89 1011.0
20260505225626 26 0 2.6 7.0 0.00 0.34 0.09 88 1010.9
20260505225120 26 0 1.7 4.3 0.00 0.34 0.09 88 1011.3
20260505224833 26 57 2.6 7.8 0.01 0.34 0.09 88 1011.5
20260505224108 27 0 2.6 7.8 0.01 0.34 0.09 88 1011.4
20260505223601 27 0 1.7 5.2 0.01 0.34 0.09 88 1011.3
20260505223055 27 0 2.6 5.2 0.01 0.34 0.09 88 1011.5
20260505222550 28 0 2.6 5.2 0.01 0.34 0.09 88 1011.2
20260505222526 28 63 3.5 7.8 0.02 0.34 0.09 89 1011.2
20260505221538 28 0 4.3 9.6 0.02 0.34 0.09 89 1010.8
20260505221032 29 0 3.5 9.6 0.02 0.34 0.09 89 1010.4
20260505220525 29 0 3.5 7.0 0.02 0.34 0.09 89 1010.5
20260505220020 29 0 3.5 7.0 0.02 0.34 0.09 89 1010.5
20260505215514 29 0 3.5 7.8 0.02 0.34 0.09 89 1011.2
20260505215008 30 0 4.3 8.7 0.03 0.34 0.09 90 1010.9
20260505214502 30 0 4.3 8.7 0.02 0.33 0.08 90 1010.6
20260505214220 30 0 4.3 8.7 0.02 0.33 0.08 90 1010.2
20260505213708 30 0 4.3 9.6 0.02 0.33 0.08 90 1010.2
20260505212944 30 0 5.2 9.6 0.02 0.33 0.08 90 1010.4
20260505212918 30 97 3.5 8.7 0.02 0.33 0.08 90 1010.6
20260505211932 30 0 3.5 8.7 0.01 0.32 0.07 90 1010.6
20260505211646 31 0 5.2 8.7 0.01 0.32 0.07 90 1010.9
20260505210921 31 0 4.3 8.7 0.01 0.32 0.07 90 1010.9
20260505210421 31 0 4.3 9.6 0.01 0.32 0.07 90 1010.9
20260505205922 31 105 4.3 9.6 0.01 0.32 0.07 91 1010.9
20260505205420 31 0 4.3 8.7 0.02 0.32 0.07 91 1010.8
20260505204920 31 0 4.3 8.7 0.01 0.31 0.06 91 1010.9
20260505204419 30 0 5.2 9.6 0.01 0.31 0.06 91 1011.2
20260505203920 30 0 4.3 9.6 0.01 0.31 0.06 91 1011.0
20260505203418 30 0 3.5 7.8 0.01 0.31 0.06 91 1011.3
20260505202920 29 0 4.3 7.0 0.01 0.31 0.06 91 1011.4
20260505202420 29 0 3.5 7.0 0.02 0.31 0.06 91 1011.5
20260505201920 29 0 4.3 8.7 0.02 0.31 0.06 91 1011.7
20260505201417 29 0 4.3 8.7 0.02 0.31 0.06 91 1011.7
20260505201133 29 0 3.5 7.0 0.02 0.31 0.06 91 1011.9
20260505200413 29 111 4.3 8.7 0.02 0.31 0.06 91 1011.9
20260505195914 29 0 4.3 8.7 0.02 0.31 0.06 91 1012.1
20260505195411 30 0 3.5 8.7 0.01 0.30 0.05 91 1011.7
20260505194911 30 100 3.5 7.8 0.01 0.30 0.05 91 1011.8
20260505194407 30 0 4.3 8.7 0.01 0.30 0.05 91 1011.8
20260505193907 30 0 5.2 9.6 0.01 0.30 0.05 91 1011.7
20260505193408 30 0 4.3 9.6 0.01 0.30 0.05 91 1011.7
20260505192907 30 130 4.3 9.6 0.01 0.30 0.05 91 1011.8
20260505192407 30 0 4.3 9.6 0.00 0.29 0.04 91 1011.9
20260505191908 30 0 4.3 10.4 0.00 0.29 0.04 91 1011.8
20260505191408 30 0 5.2 10.4 0.00 0.29 0.04 91 1011.5
20260505190908 30 0 5.2 10.4 0.00 0.29 0.04 92 1011.5
20260505190630 30 0 5.2 9.6 0.00 0.29 0.04 92 1011.5
20260505185908 30 0 5.2 9.6 0.00 0.29 0.04 92 1011.5
20260505185631 30 0 5.2 9.6 0.00 0.29 0.04 92 1011.7
20260505184908 30 0 5.2 9.6 0.00 0.29 0.04 92 1011.8
20260505184407 30 0 4.3 9.6 0.00 0.29 0.04 92 1011.8
20260505183908 29 0 4.3 9.6 0.02 0.29 0.04 92 1011.9
20260505183630 30 0 3.5 7.8 0.02 0.29 0.04 92 1012.1
20260505183127 30 0 3.5 8.7 0.02 0.29 0.04 92 1012.1
20260505182406 30 0 3.5 8.7 0.02 0.29 0.04 92 1012.1
20260505182134 30 0 3.5 7.8 0.02 0.29 0.04 92 1012.2
20260505181856 30 0 3.5 7.8 0.02 0.29 0.04 92 1012.3
20260505180901 30 64 2.6 7.8 0.02 0.29 0.04 92 1012.3
20260505180355 30 0 2.6 7.8 0.02 0.29 0.04 92 1012.2
20260505180046 29 0 4.3 8.7 0.02 0.29 0.04 92 1012.2
20260505175932 30 0 3.5 8.7 0.02 0.29 0.04 92 1012.2
20260505174837 29 0 3.5 7.0 0.02 0.29 0.04 92 1012.2
20260505174331 29 0 3.5 5.2 0.00 0.27 0.02 92 1012.2
20260505173825 29 0 3.5 7.8 0.00 0.27 0.02 92 1012.3
20260505173319 29 0 3.5 7.8 0.00 0.27 0.02 91 1012.5
20260505172813 29 0 2.6 7.0 0.00 0.27 0.02 91 1012.5
20260505172307 29 0 3.5 7.0 0.00 0.27 0.02 92 1012.5
20260505171801 29 0 2.6 7.0 0.00 0.27 0.02 92 1012.8
20260505171255 29 0 1.7 6.1 0.00 0.27 0.02 92 1012.8
20260505170750 29 0 2.6 7.0 0.00 0.27 0.02 92 1012.8
20260505170501 29 0 2.6 7.0 0.00 0.27 0.02 92 1012.8
20260505165737 29 0 3.5 7.8 0.00 0.27 0.02 92 1012.8
20260505165231 29 0 3.5 7.8 0.00 0.27 0.02 92 1012.8
20260505164725 29 0 2.6 7.0 0.00 0.27 0.02 92 1012.8
20260505164440 29 0 3.5 7.0 0.00 0.27 0.02 92 1012.7
20260505163935 29 0 3.5 7.0 0.00 0.27 0.02 92 1012.8
20260505163207 29 0 3.5 7.0 0.00 0.27 0.02 92 1012.7
20260505162701 29 0 3.5 7.0 0.00 0.27 0.02 92 1012.7
20260505162416 29 0 3.5 7.0 0.00 0.27 0.02 92 1012.7
20260505161649 29 0 3.5 7.0 0.00 0.27 0.02 92 1012.8
20260505161143 29 106 2.6 6.1 0.00 0.27 0.02 92 1013.0
20260505160904 29 103 2.6 6.1 0.00 0.27 0.02 92 1013.0
20260505160131 29 0 2.6 7.0 0.00 0.27 0.02 92 1013.0
20260505153054 28 0 2.6 7.0 0.00 0.27 0.02 92 1013.1
20260505152549 28 0 2.6 7.0 0.00 0.27 0.02 92 1013.0
20260505152043 28 0 2.6 5.2 0.00 0.27 0.02 92 1013.2
20260505151758 28 0 3.5 5.2 0.00 0.27 0.02 92 1013.4
20260505151031 28 0 2.6 5.2 0.00 0.27 0.02 92 1013.2
20260505150525 28 0 2.6 4.3 0.00 0.27 0.02 92 1013.2
20260505140438 27 0 2.6 4.3 0.00 0.27 0.02 92 1013.4
20260505140202 27 0 2.6 4.3 0.00 0.27 0.02 92 1013.4
20260505124931 28 0 1.7 4.3 0.00 0.27 0.02 92 1013.0
20260505124431 28 75 2.6 4.3 0.00 0.27 0.02 92 1012.8
20260505123931 28 75 2.6 5.2 0.00 0.27 0.02 92 1012.8
20260505123431 28 71 2.6 5.2 0.00 0.27 0.02 92 1012.8
20260505122927 28 71 2.6 4.3 0.00 0.27 0.02 92 1012.8
20260505122423 28 0 1.7 4.3 0.00 0.27 0.02 92 1012.6
20260505121924 28 67 2.6 7.0 0.00 0.27 0.02 92 1012.8
20260505121424 28 67 2.6 7.0 0.00 0.27 0.02 92 1012.8
20260505120923 29 68 3.5 8.7 0.00 0.27 0.02 92 1013.0
20260505120424 29 0 2.6 8.7 0.00 0.27 0.02 92 1012.8
20260505115924 29 0 1.7 6.1 0.00 0.27 0.02 92 1012.7
20260505115423 29 0 1.7 4.3 0.00 0.27 0.02 92 1012.7
20260505114922 29 0 1.7 4.3 0.00 0.27 0.02 92 1012.6
20260505114423 29 0 2.6 5.2 0.00 0.27 0.02 92 1012.7
20260505113921 29 0 2.6 5.2 0.00 0.27 0.02 92 1012.7
20260505113421 29 79 2.6 5.2 0.00 0.27 0.02 92 1012.7
20260505112922 29 0 2.6 7.0 0.00 0.27 0.02 92 1012.6
20260505112422 29 0 1.7 7.0 0.00 0.27 0.02 92 1012.5
20260505111916 29 0 1.7 7.0 0.00 0.27 0.02 92 1012.6
20260505111636 29 0 2.6 7.0 0.00 0.27 0.02 92 1012.6
20260505110904 30 0 1.7 3.5 0.00 0.27 0.02 92 1012.6
20260505110358 30 73 1.7 4.3 0.00 0.27 0.02 92 1012.6
20260505101802 31 0 3.5 7.0 0.00 0.27 0.02 92 1012.3
20260505101256 31 0 3.5 7.0 0.00 0.27 0.02 92 1012.3
20260505100750 31 71 2.6 7.0 0.00 0.27 0.02 92 1012.3
20260505100244 32 0 2.6 7.0 0.00 0.27 0.02 92 1012.3
20260505100222 32 0 3.5 7.0 0.00 0.27 0.02 92 1012.5
20260505095232 32 0 3.5 7.0 0.00 0.27 0.02 92 1012.3
20260505094726 33 0 2.6 7.0 0.00 0.27 0.02 92 1012.3
20260505094220 33 0 2.6 6.1 0.00 0.27 0.02 92 1012.3
20260505093714 33 0 2.6 6.1 0.00 0.27 0.02 92 1012.3
20260505093208 33 0 1.7 5.2 0.00 0.27 0.02 92 1012.5
20260505092701 33 0 2.6 5.2 0.00 0.27 0.02 92 1012.5
20260505092156 34 0 2.6 5.2 0.01 0.27 0.02 92 1012.3
20260505091650 34 26 1.7 3.5 0.01 0.27 0.02 92 1012.3
20260505091144 34 30 1.7 3.5 0.01 0.27 0.02 92 1012.5
20260505090900 34 0 1.7 3.5 0.01 0.27 0.02 92 1012.5
20260505090132 35 23 0.9 2.6 0.01 0.27 0.02 92 1012.2
20260505085627 35 25 1.7 3.5 0.01 0.27 0.02 92 1012.2
20260505085120 35 23 2.6 3.5 0.01 0.27 0.02 92 1012.5
20260505084614 35 21 2.6 4.3 0.01 0.27 0.02 92 1012.5
20260505084108 35 0 0.9 4.3 0.01 0.27 0.02 92 1012.3
20260505083602 35 0 0.9 3.5 0.01 0.27 0.02 92 1012.5
20260505083056 35 0 0.0 1.7 0.01 0.27 0.02 92 1012.3
20260505082550 35 0 0.0 0.0 0.01 0.27 0.02 92 1012.6
20260505082044 35 0 0.0 0.0 0.00 0.26 0.01 92 1012.7
20260505081538 35 0 0.0 0.0 0.00 0.26 0.01 92 1012.6
20260505081032 35 0 0.9 1.7 0.01 0.26 0.01 92 1012.8
20260505080525 35 335 0.9 3.5 0.01 0.26 0.01 92 1013.0
20260505080020 35 0 0.9 3.5 0.01 0.26 0.01 92 1012.8
20260505075514 35 0 1.7 3.5 0.01 0.26 0.01 92 1012.7
20260505075008 35 333 2.6 4.3 0.01 0.26 0.01 91 1012.7
20260505074502 35 335 3.5 5.2 0.01 0.26 0.01 91 1013.0
20260505073956 35 335 3.5 5.2 0.01 0.26 0.01 91 1013.1
20260505073718 35 334 3.5 5.2 0.01 0.26 0.01 91 1013.1
20260505073158 35 334 3.5 5.2 0.01 0.26 0.01 91 1013.2
20260505073043 35 333 3.5 5.2 0.01 0.26 0.01 91 1013.2
20260505071949 35 334 4.3 7.0 0.01 0.26 0.01 91 1013.2
20260505071450 35 0 4.3 7.0 0.01 0.26 0.01 91 1013.1
20260505070953 35 0 3.5 7.0 0.00 0.25 0.00 91 1013.2
20260505070450 35 11 2.6 6.1 0.00 0.25 0.00 91 1013.2
20260505065948 35 11 1.7 4.3 0.00 0.25 0.00 91 1013.2
20260505065449 35 11 2.6 4.3 0.00 0.25 0.00 91 1013.0
20260505064948 35 11 2.6 6.1 0.01 0.25 0.00 91 1013.0
20260505064450 35 11 2.6 6.1 0.01 0.25 0.00 91 1013.1
20260505063950 35 13 2.6 3.5 0.01 0.25 0.00 91 1013.0
20260505063714 35 11 1.7 3.5 0.01 0.25 0.00 91 1013.0
20260505063211 35 11 0.9 3.5 0.01 0.25 0.00 91 1013.0
20260505062448 35 11 0.9 2.6 0.01 0.25 0.00 91 1013.1
20260505061949 35 12 0.9 2.6 0.02 0.25 0.00 91 1013.0
20260505061448 35 11 1.7 3.5 0.02 0.25 0.00 91 1013.0
20260505060949 35 12 2.6 3.5 0.02 0.25 0.00 91 1013.0
20260505060450 35 11 1.7 3.5 0.02 0.25 0.00 91 1013.0
20260505055947 35 16 1.7 6.1 0.02 0.25 0.25 91 1013.0
20260505055446 35 0 1.7 6.1 0.03 0.25 0.25 91 1013.0
20260505055200 35 221 1.7 3.5 0.02 0.24 0.24 91 1013.0
20260505054708 35 221 2.6 4.3 0.02 0.24 0.24 91 1013.0
20260505053940 35 221 2.6 4.3 0.02 0.24 0.24 91 1013.0
20260505053442 35 221 2.6 4.3 0.03 0.24 0.24 91 1012.8
20260505052940 35 221 3.5 7.8 0.03 0.24 0.24 91 1012.8
20260505052442 35 221 4.3 10.4 0.03 0.24 0.24 91 1012.7
20260505051941 35 0 5.2 10.4 0.02 0.23 0.23 91 1012.7
20260505051441 35 0 5.2 8.7 0.03 0.23 0.23 91 1012.6
20260505050942 35 0 5.2 9.6 0.03 0.23 0.23 91 1012.8
20260505050437 35 0 5.2 9.6 0.03 0.23 0.23 91 1013.0
20260505041425 34 155 5.2 7.8 0.03 0.20 0.20 90 1013.4
20260505040918 34 183 4.3 7.8 0.04 0.20 0.20 89 1013.6
20260505040413 34 0 4.3 7.0 0.04 0.20 0.20 89 1013.8
20260505035907 34 212 3.5 5.2 0.05 0.20 0.20 89 1013.6
20260505035401 34 0 2.6 4.3 0.04 0.19 0.19 89 1013.5
20260505034855 34 0 2.6 4.3 0.06 0.19 0.19 89 1013.5
20260505034349 34 210 1.7 3.5 0.07 0.19 0.19 88 1013.4
20260505034106 34 0 1.7 3.5 0.08 0.19 0.19 88 1013.6
20260505033336 34 209 1.7 2.6 0.07 0.18 0.19 88 1013.6
20260505033056 34 0 1.7 2.6 0.09 0.18 0.18 87 1013.8
20260505032325 34 0 2.6 4.3 0.11 0.18 0.18 87 1013.5
20260505031819 34 0 2.6 4.3 0.12 0.17 0.17 86 1013.6
20260505031313 34 234 0.9 3.5 0.14 0.17 0.17 86 1013.5
20260505030807 35 236 0.9 2.6 0.14 0.16 0.16 85 1013.6
20260505030537 35 236 1.7 2.6 0.15 0.16 0.16 85 1013.6
20260505025754 35 235 1.7 2.6 0.15 0.15 0.15 84 1013.9
20260505025249 35 235 1.7 3.5 0.14 0.14 0.14 84 1013.5
20260505024743 36 235 3.5 5.2 0.13 0.13 0.13 83 1013.5
20260505024237 36 238 4.3 7.8 0.12 0.12 0.12 82 1013.5
20260505023732 37 0 5.2 9.6 0.11 0.11 0.11 82 1013.5
20260505023713 38 302 4.3 9.6 0.11 0.11 0.11 83 1013.6
20260505022719 38 304 2.6 7.8 0.09 0.09 0.09 84 1013.6
20260505022213 39 0 0.9 4.3 0.07 0.07 0.07 84 1013.5
20260505021708 39 0 0.9 5.2 0.04 0.04 0.05 84 1013.4
20260505021201 40 0 2.6 8.7 0.03 0.03 0.03 84 1013.4
20260505020655 40 0 3.5 9.6 0.02 0.02 0.02 84 1013.2
20260505020149 40 59 5.2 9.6 0.01 0.01 0.01 83 1012.7
20260505015643 40 0 5.2 9.6 0.00 0.00 0.00 82 1013.0
20260505015136 41 0 6.1 10.4 0.00 0.00 0.00 81 1013.0
20260505014631 41 0 6.1 11.3 0.00 0.00 0.00 79 1012.8
20260505014125 42 0 7.0 11.3 0.00 0.00 0.00 77 1012.7
20260505013845 42 0 6.1 11.3 0.00 0.00 0.00 76 1012.7
20260505013113 42 0 3.5 11.3 0.00 0.00 0.00 76 1012.5
20260505012607 43 0 2.6 5.2 0.00 0.00 0.00 75 1012.6
20260505012101 43 0 3.5 7.0 0.00 0.00 0.00 74 1012.7
20260505011555 43 0 4.3 7.8 0.00 0.00 0.00 74 1012.8
20260505011049 43 0 3.5 7.8 0.00 0.00 0.00 72 1012.8
20260505010543 44 0 4.3 8.7 0.00 0.00 0.00 70 1012.7
20260505010037 44 156 5.2 10.4 0.00 0.00 0.00 69 1012.8
20260505005531 44 140 4.3 10.4 0.00 0.00 0.00 69 1012.6
20260505005025 44 172 4.3 9.6 0.00 0.00 0.00 70 1012.7
20260505004519 44 0 5.2 10.4 0.00 0.00 0.00 69 1012.8
20260505004234 44 0 5.2 10.4 0.00 0.00 0.00 69 1012.7
20260505003743 44 0 5.2 10.4 0.00 0.00 0.00 68 1012.8
20260505003238 45 0 4.3 8.7 0.00 0.00 0.00 68 1012.8
20260505002514 45 150 6.1 10.4 0.00 0.00 0.00 69 1012.8
20260505002015 45 0 7.0 10.4 0.00 0.00 0.00 69 1012.8
20260505001514 45 127 5.2 10.4 0.00 0.00 0.00 70 1012.8
20260505001238 45 114 3.5 9.6 0.00 0.00 0.00 70 1012.8
20260505000513 45 0 2.6 8.7 0.00 0.00 0.00 69 1013.0
20260505000015 45 138 2.6 6.1 0.00 0.00 0.00 67 1012.8
20260504235512 45 138 1.7 6.1 0.00 0.00 0.00 68 1012.8
20260504235011 45 105 0.9 4.3 0.00 0.00 0.00 67 1013.0
20260504234513 45 90 1.7 4.3 0.00 0.00 0.00 67 1013.0
20260504234010 45 92 2.6 6.1 0.00 0.00 0.00 66 1012.7
20260504233509 45 88 1.7 6.1 0.00 0.00 0.00 67 1012.7
20260504233009 45 83 0.9 4.3 0.00 0.00 0.00 66 1013.0
20260504233001 45 82 0.9 4.3 0.00 0.00 0.00 65 1013.0
20260504232009 45 82 1.7 6.1 0.00 0.00 0.00 65 1012.8
20260504231510 45 0 1.7 6.1 0.00 0.00 0.00 66 1012.5
20260504231010 45 65 1.7 5.2 0.00 0.00 0.00 65 1012.7